Starlink 32615

operational
NORAD ID: 62034 Int'l Des: 2024-216 Owner: SPXS Country: US Constellation: starlink
LEOCIRCULAR

Starlink 32615について

説明を読み込み中...

リアルタイム位置

3D地球を読み込み中...

次回通過

高度履歴

Altitude vs Time

uPlot chart will show altitude changes over time

軌道要素

1 62034U 24216C 25305.59337351 .00035601 00000-0 12969-2 0 9995
2 62034 43.0036 259.8609 0001955 271.9858 88.0770 15.27580802 53121
Epoch: Nov 1, 2025 • Age: 11 hours

現在のステータス

高度 486.8 km
速度 7.63 km/s
衛星直下点 40.38°N, 55°W
打ち上げ日 Nov 21, 2024
運用期間 0.9 years
タイプ internet

技術仕様

分類 Payload
質量 730.00 kg
乾燥質量 700.00 kg
総質量 730.00 kg
長さ 0.30 m
直径 4.10 m
スパン 29.00 m
形状 Box + pan
製造者 SPXS
バスタイプ Starlink V2M
フェーズステータス In Orbit
所有者/国 SPXS/US

大規模コンステレーション

Loading constellations...